(735) Marghanna
ephemeris date magn radius delta ra dec elong phase
Today23 Jun 202616.13.235 AU4.032 AU08h32m+32°42'33.6°10.0°
Opposition7 Mar 202715.23.595 AU2.644 AU11h43m+22°59'160.6°5.3°
(735) Marghanna - 2026-06-23
astro.vanbuitenen.nl


 
-1 year
-1 month
-1 day
Now
+1 day
+1 month
+1 year

The interactive orbit chart above shows the body's path through the solar system and its position at the given date. Green and blue lines are shown perpendicular to the ecliptic plane: Green if the path is above the ecliptic plane, blue if it is below. (Left-click and drag to rotate the view; Right-click and drag to move the view; Use scroll wheel to zoom in our out.)

The orbital elements of Marghanna are:

            e (Eccentricity)                : 0.3211861
            a (Semimajor axis)              : 2.7320296
            i (Inclination)                 : 16.85380
            Ω (Longitude of ascending node) : 42.81961
            ω (Argument of perihelion)      : 310.19677
            M (Mean anomaly)                : 106.86857
            Epoch                           : 2026 Jun 09

            L (Longitude of perihelion)     : -5.73939
            B (Latitude of perihelion)      : -12.79470
            P (Orbital period in years)     : 4.52            
        

The light curve chart below shows the estimated development of the minor planet's magnitude.


The all-sky chart below shows the path of the minor planet over the same period as the light curve. The current position is marked yellow.





The following chart shows the path of the minor planet in the next few days. The field of view is optimized for (~10x50) binoculars and finderscopes.




Ephemerides:
Date       Time       RA (2000)    DEC (2000)    delta   radius  elong  phase   PA    magn
2026-06-23 00:00 UT   08 32 33.8   +32 42 41     4.032    3.235   33.6   10.0    84   16.1 
2026-06-23 11:54 UT   08 33 17.8   +32 39 35     4.037    3.236   33.3    9.9    83   16.1 
2026-06-24 00:00 UT   08 34 02.6   +32 36 26     4.042    3.238   33.0    9.9    83   16.1 
2026-06-25 00:00 UT   08 35 31.3   +32 30 11     4.051    3.240   32.5    9.7    83   16.1 
2026-06-26 00:00 UT   08 37 00.0   +32 23 54     4.060    3.242   31.9    9.5    83   16.1 
2026-06-27 00:00 UT   08 38 28.8   +32 17 36     4.069    3.245   31.4    9.4    82   16.1 
2026-06-28 00:00 UT   08 39 57.5   +32 11 16     4.078    3.247   30.8    9.2    82   16.1 
2026-06-29 00:00 UT   08 41 26.1   +32 04 56     4.087    3.249   30.2    9.1    81   16.1 
2026-06-30 00:00 UT   08 42 54.7   +31 58 34     4.095    3.251   29.7    8.9    81   16.1 
2026-07-01 00:00 UT   08 44 23.3   +31 52 11     4.104    3.254   29.1    8.8    81   16.1 
2026-07-02 00:00 UT   08 45 51.9   +31 45 47     4.112    3.256   28.6    8.6    80   16.1 
2026-07-03 00:00 UT   08 47 20.4   +31 39 22     4.120    3.258   28.0    8.4    80   16.1 
2026-07-04 00:00 UT   08 48 48.8   +31 32 56     4.128    3.260   27.5    8.3    79   16.1 
2026-07-05 00:00 UT   08 50 17.2   +31 26 28     4.136    3.263   27.0    8.1    79   16.1 
2026-07-06 00:00 UT   08 51 45.6   +31 19 60     4.144    3.265   26.4    8.0    78   16.1 
2026-07-07 00:00 UT   08 53 13.9   +31 13 30     4.151    3.267   25.9    7.8    77   16.1 
2026-07-08 00:00 UT   08 54 42.1   +31 06 59     4.159    3.269   25.4    7.7    77   16.1 
2026-07-09 00:00 UT   08 56 10.3   +31 00 28     4.166    3.271   24.8    7.5    76   16.1 
2026-07-10 00:00 UT   08 57 38.4   +30 53 55     4.173    3.274   24.3    7.3    76   16.1 
2026-07-11 00:00 UT   08 59 06.5   +30 47 21     4.180    3.276   23.8    7.2    75   16.1 
2026-07-12 00:00 UT   09 00 34.4   +30 40 46     4.187    3.278   23.3    7.0    74   16.1 
2026-07-13 00:00 UT   09 02 02.3   +30 34 10     4.194    3.280   22.8    6.9    73   16.1 
2026-07-14 00:00 UT   09 03 30.2   +30 27 34     4.200    3.282   22.3    6.7    72   16.1 
2026-07-15 00:00 UT   09 04 57.9   +30 20 56     4.207    3.285   21.8    6.6    72   16.1 
2026-07-16 00:00 UT   09 06 25.5   +30 14 18     4.213    3.287   21.3    6.5    71   16.1 
2026-07-17 00:00 UT   09 07 53.1   +30 07 38     4.219    3.289   20.8    6.3    70   16.1 
2026-07-18 00:00 UT   09 09 20.6   +30 00 58     4.225    3.291   20.3    6.2    69   16.1 


    Terminology:
            
    delta:  distance between minor planet and earth in AU
    radius: distance between minor planet and sun in AU
    magn:   magnitude (brightness) estimate    
    ra:     right ascension in hours (24h = 360deg)
    dec:    declination in degrees
    elong:  elongation in degrees (angle sun-earth-minor planet)    
    phase:  phase angle in degrees (angle sun-minor planet-earth)        
    AU:     Astronomical Unit (mean distance between earth and sun: 149597870.7 km
    

Orbital elements provided by the MPC (Minor Planet Center).
Calculations by a modified version of AAPlus, a C# implementation of the AA+ project by PJ Naughter from the algorithms presented in the book "Astronomical Algorithms" by Jean Meeus.
NGC2000 dso catalog and star labels from VizieR as provided by the Strasbourg astronomical Data Center.
Tycho2 catalog from the ESO archive.